This is the latest recevied weather packets stored in our database for station/object K2RMB. If no packets are shown the sender has not sent any weather packets the latest 10 day(s).
| Time | Temp. | Humidity | Pressure | Rain* | Wind** | Luminosity | Snow |
|---|---|---|---|---|---|---|---|
| 1777338399 | 16.11° C | 37% | 1024 hPa | 0 mm | - | 0 W/m² | - |
| 1777338095 | 15.56° C | 37% | 1024.4 hPa | 0 mm | - | 0 W/m² | - |
| 1777337792 | 16.11° C | 40% | 1024 hPa | 0 mm | - | 0 W/m² | - |
| 1777337489 | 15.56° C | 39% | 1024 hPa | 0 mm | - | 0 W/m² | - |
| 1777337186 | 15.56° C | 40% | 1024 hPa | 0 mm | - | 0 W/m² | - |
| 1777336883 | 16.11° C | 39% | 1023.7 hPa | 0 mm | - | 0 W/m² | - |
| 1777336582 | 16.11° C | 40% | 1024 hPa | 0 mm | - | 0 W/m² | - |
| 1777336280 | 15.56° C | 37% | 1023.7 hPa | 0 mm | - | 0 W/m² | - |
| 1777335977 | 15.56° C | 40% | 1023.7 hPa | 0 mm | - | 0 W/m² | - |
| 1777335673 | 16.11° C | 40% | 1023.4 hPa | 0 mm | - | 0 W/m² | - |
| 1777335370 | 16.11° C | 42% | 1023.4 hPa | 0 mm | - | 0 W/m² | - |
| 1777335068 | 16.67° C | 38% | 1023.4 hPa | 0 mm | - | 0 W/m² | - |
| 1777334766 | 16.67° C | 36% | 1023.4 hPa | 0 mm | - | 0 W/m² | - |
| 1777334463 | 17.22° C | 36% | 1023.4 hPa | 0 mm | - | 1 W/m² | - |
| 1777334159 | 17.78° C | 35% | 1023.4 hPa | 0 mm | - | 2 W/m² | - |
| 1777333859 | 17.78° C | 34% | 1023.4 hPa | 0 mm | - | 3 W/m² | - |
| 1777333556 | 18.33° C | 34% | 1023.4 hPa | 0 mm | - | 4 W/m² | - |
| 1777333252 | 18.33° C | 33% | 1023 hPa | 0 mm | - | 6 W/m² | - |
| 1777332950 | 18.33° C | 33% | 1023 hPa | 0 mm | - | 8 W/m² | - |
| 1777332649 | 18.89° C | 32% | 1023 hPa | 0 mm | - | 11 W/m² | - |
| 1777332345 | 18.89° C | 33% | 1023 hPa | 0 mm | - | 15 W/m² | - |
| 1777332041 | 19.44° C | 32% | 1023 hPa | 0 mm | - | 19 W/m² | - |
| 1777331740 | 19.44° C | 31% | 1023 hPa | 0 mm | - | 22 W/m² | - |
| 1777331436 | 19.44° C | 31% | 1023 hPa | 0 mm | - | 25 W/m² | - |
| 1777331133 | 19.44° C | 32% | 1023.4 hPa | 0 mm | - | 28 W/m² | - |
* Rain latest hour (hover to see other rain measurements)
** Current wind speed in m/s (hover to see current wind gust speed)